Starlink 5748

operational
NORAD ID: 55604 Int'l Des: 2023-020 Owner: SPXS Country: US Constellation: starlink
LEOCIRCULAR

关于 Starlink 5748

正在加载描述...

实时位置

正在加载3D地球...

即将过境

高度历史

Altitude vs Time

uPlot chart will show altitude changes over time

两行轨道根数

1 55604U 23020AM 26061.26672508 .00065592 00000-0 47583-2 0 9994
2 55604 43.0042 18.9078 0002039 254.3254 105.7364 15.03063474168102
Epoch: Mar 2, 2026 • Age: 29 hours

当前状态

高度 556.2 km
速度 7.59 km/s
星下点 8.51°N, 58.58°W
发射日期 Feb 12, 2023
运行时间 3 years
类型 internet

技术详情

分类 Payload
质量 305.00 kg
干质量 290.00 kg
总质量 305.00 kg
长度 0.20 m
直径 2.80 m
跨度 9.00 m
形状 Box + pan
制造商 SPXS
平台类型 Starlink
阶段状态 In Orbit
所有者/国家 SPXS/US

大型星座

Loading constellations...